Regional Weather Roundup
Issued by NWS New Orleans/Baton Rouge, LA

Home | Current Version | Previous Version | Graphics & Text | Print | Product List | Glossary On
Versions: 1 2 3 4 5 6 7 8 9 10 11 12 13 14 15 16 17 18 19 20 21 22 23 24 25 26 27 28 29 30 31 32 33 34 35 36 37 38 39 40 41 42 43 44 45 46 47 48 49 50
018
ASUS44 KLIX 201105
RWRLIX
NEW ORLEANS REGIONAL WEATHER ROUNDUP
NATIONAL WEATHER SERVICE NEW ORLEANS LA
500 AM CST THU NOV 20 2014

NOTE: "FAIR" INDICATES FEW OR NO CLOUDS BELOW 12,000 FEET WITH NO
      SIGNIFICANT WEATHER AND/OR OBSTRUCTIONS TO VISIBILITY.
      SKY/WX - SKY CONDITION AND SIGNIFICANT WEATHER.
      TMP - AIR TEMPERATURE.     DP    - DEWPOINT TEMPERATURE.
      RH  - RELATIVE HUMIDITY.   PRES  - PRESSURE.
      HI  - HEAT INDEX.          WCI   - WIND CHILL INDEX.

*  THESE STATIONS ARE NOT NWS OR FAA STATIONS AND ARE NOT UNDER
   NWS QUALITY CONTROL.

LAZ038-040-048-061>063-065>067-069-201200-
SOUTHEAST LOUISIANA

CITY           SKY/WX    TMP DP  RH WIND       PRES   REMARKS
N.O. AUDUBON   NOT AVBL
N.O. INTL ARPT CLEAR     44  41  89 CALM      30.25S
N.O. LAKEFRONT CLEAR     48  43  82 S8        30.26S
N.O. DOWNTOWN*   N/A     54  43  66 SE10      30.26S
SLIDELL        CLEAR     34  31  88 CALM      30.26S
BATON ROUGE    MOCLDY    38  36  92 NE3       30.25S
BOOTHVILLE     CLEAR     52  47  83 E3        30.27S
BELLE CHASSE   CLEAR     40  36  86 CALM      30.26R
BOGALUSA*        N/A     35  32  90 CALM      30.28S
NEW ROADS*     CLOUDY    41  40  97 CALM      30.25S
GONZALES*        N/A     41  41 100 CALM      30.25R
HAMMOND*       CLEAR     34  32  93 CALM      30.27S
HOUMA*         CLEAR     38  38 100 CALM      30.25S FOG
PORT FOURCHON* SUNNY     59  48  67 CALM      30.28S

$$

MSZ070-080>082-201200-
SOUTHERN MISSISSIPPI

CITY           SKY/WX    TMP DP  RH WIND       PRES   REMARKS
MCCOMB         PTCLDY    39  37  92 CALM      30.25S FOG
GULFPORT       CLEAR     35  33  92 CALM      30.26S
BILOXI         CLEAR     38  37  97 CALM      30.26S
PASCAGOULA     CLEAR     30  28  92 CALM      30.27S

$$

COASTAL OBSERVATIONS
LAKE AND NEARSHORE STATIONS

STATION/POSITION TIME  TEMP    WIND        PRES    WAVE
                       AIR SEA DIR/SP/G            HT/PER
                 (UTC) (F)     (DEG/KT/KT) (MB)    (FT/S)
PASCAGOULA       1100   40     350/  3/  3 1024.3
WAVELAND YACHT   1100   46      10/  1/  2 1023.7
GRAND ISLE       1100   58 57  160/  2/  2 1024.6
SOUTHWEST PASS   1100   58 72              1024.6
NEW CANAL        1100   48 52  180/  4/  5 1024.7
SHELL BEACH      1100   50 48  150/  6/  7 1024.4

OFFSHORE STATIONS

STATION/POSITION TIME  TEMP    WIND        PRES    WAVE
                       AIR SEA DIR/SP/G            HT/PER
                 (UTC) (F)     (DEG/KT/KT) (MB)    (FT/S)
64 S DAUPHIN ISL 0954   60 72  160/  2/  4 1025.5    2/ 6

$$




USA.gov is the U.S. government's official web portal to all federal, state and local government web resources and services.